Time,TemperatureF,DewpointF,PressureIn,WindDirection,WindDirectionDegrees,WindSpeedMPH,WindSpeedGustMPH,Humidity,HourlyPrecipIn,Conditions,Clouds,dailyrainin,SoftwareType,DateUTC
2013-03-03 00:12:00,20.0,17.0,29.60,East,81,0.0,1.0,86,0.00,,,0.01,weatherlink.com 1.10,2013-03-03 05:12:00,
2013-03-03 00:27:00,20.0,17.0,29.60,West,272,0.0,2.0,86,0.00,,,0.00,weatherlink.com 1.10,2013-03-03 05:27:00,
2013-03-03 00:42:00,19.9,17.0,29.60,West,272,0.0,2.0,87,0.00,,,0.00,weatherlink.com 1.10,2013-03-03 05:42:00,
2013-03-03 00:57:00,19.9,17.0,29.60,West,272,0.0,2.0,87,0.00,,,0.00,weatherlink.com 1.10,2013-03-03 05:57:00,
2013-03-03 01:12:00,19.9,17.0,29.59,NW,317,0.0,1.0,87,0.00,,,0.00,weatherlink.com 1.10,2013-03-03 06:12:00,
2013-03-03 01:27:00,20.0,17.0,29.59,NW,317,0.0,1.0,87,0.00,,,0.00,weatherlink.com 1.10,2013-03-03 06:27:00,
2013-03-03 01:42:00,19.9,17.0,29.59,NW,317,0.0,0.0,87,0.00,,,0.00,weatherlink.com 1.10,2013-03-03 06:42:00,
2013-03-03 01:57:00,19.9,17.0,29.59,NW,317,0.0,2.0,88,0.00,,,0.00,weatherlink.com 1.10,2013-03-03 06:57:00,
2013-03-03 02:12:00,20.0,17.0,29.59,NW,317,0.0,2.0,87,0.00,,,0.00,weatherlink.com 1.10,2013-03-03 07:12:00,
2013-03-03 02:27:00,20.0,17.0,29.58,NW,317,0.0,1.0,87,0.00,,,0.00,weatherlink.com 1.10,2013-03-03 07:27:00,
2013-03-03 02:42:00,20.0,17.0,29.57,NW,317,0.0,1.0,87,0.00,,,0.00,weatherlink.com 1.10,2013-03-03 07:42:00,
2013-03-03 02:57:00,19.9,17.0,29.57,NW,317,0.0,2.0,87,0.00,,,0.00,weatherlink.com 1.10,2013-03-03 07:57:00,
2013-03-03 03:12:00,20.0,17.0,29.57,NW,317,0.0,0.0,87,0.00,,,0.00,weatherlink.com 1.10,2013-03-03 08:12:00,
2013-03-03 03:27:00,20.0,17.0,29.57,NW,317,0.0,0.0,87,0.00,,,0.00,weatherlink.com 1.10,2013-03-03 08:27:00,
2013-03-03 03:42:00,20.0,17.0,29.57,NW,317,0.0,0.0,88,0.00,,,0.00,weatherlink.com 1.10,2013-03-03 08:42:00,
2013-03-03 03:57:00,20.0,17.0,29.57,NW,317,0.0,2.0,88,0.00,,,0.00,weatherlink.com 1.10,2013-03-03 08:57:00,
2013-03-03 04:12:00,20.0,17.0,29.57,NW,317,0.0,0.0,88,0.00,,,0.00,weatherlink.com 1.10,2013-03-03 09:12:00,
2013-03-03 04:27:00,20.0,17.0,29.57,NW,317,0.0,2.0,88,0.00,,,0.00,weatherlink.com 1.10,2013-03-03 09:27:00,
2013-03-03 04:42:00,20.0,17.0,29.57,NW,317,0.0,1.0,88,0.00,,,0.00,weatherlink.com 1.10,2013-03-03 09:42:00,
2013-03-03 04:57:00,20.0,17.0,29.57,NW,317,0.0,2.0,87,0.00,,,0.00,weatherlink.com 1.10,2013-03-03 09:57:00,
2013-03-03 05:12:00,19.9,17.0,29.57,NW,317,0.0,2.0,87,0.00,,,0.00,weatherlink.com 1.10,2013-03-03 10:12:00,
2013-03-03 05:27:00,19.9,17.0,29.57,NW,317,0.0,0.0,87,0.00,,,0.00,weatherlink.com 1.10,2013-03-03 10:27:00,
2013-03-03 05:42:00,20.0,17.0,29.57,NW,317,0.0,0.0,87,0.00,,,0.00,weatherlink.com 1.10,2013-03-03 10:42:00,
2013-03-03 05:57:00,19.9,17.0,29.57,NW,317,0.0,1.0,87,0.00,,,0.00,weatherlink.com 1.10,2013-03-03 10:57:00,
2013-03-03 06:12:00,19.9,17.0,29.57,NW,317,0.0,1.0,87,0.00,,,0.00,weatherlink.com 1.10,2013-03-03 11:12:00,
2013-03-03 06:27:00,20.0,17.0,29.57,NW,317,0.0,0.0,88,0.00,,,0.00,weatherlink.com 1.10,2013-03-03 11:27:00,
2013-03-03 06:42:00,20.2,17.0,29.57,NW,317,0.0,0.0,88,0.00,,,0.00,weatherlink.com 1.10,2013-03-03 11:42:00,
2013-03-03 06:57:00,20.2,18.0,29.57,NW,317,0.0,1.0,89,0.00,,,0.00,weatherlink.com 1.10,2013-03-03 11:57:00,
2013-03-03 07:12:00,20.3,18.0,29.58,NW,317,0.0,0.0,90,0.00,,,0.00,weatherlink.com 1.10,2013-03-03 12:12:00,
2013-03-03 07:27:00,20.8,18.0,29.59,NW,317,0.0,0.0,90,0.00,,,0.00,weatherlink.com 1.10,2013-03-03 12:27:00,
2013-03-03 07:42:00,20.6,18.0,29.59,WNW,290,0.0,0.0,90,0.00,,,0.00,weatherlink.com 1.10,2013-03-03 12:42:00,
2013-03-03 07:57:00,21.1,19.0,29.59,NW,307,0.0,1.0,90,0.00,,,0.00,weatherlink.com 1.10,2013-03-03 12:57:00,
2013-03-03 08:12:00,21.3,19.0,29.59,WNW,299,0.0,2.0,89,0.00,,,0.00,weatherlink.com 1.10,2013-03-03 13:12:00,
2013-03-03 08:27:00,21.3,19.0,29.59,WNW,300,0.0,2.0,89,0.00,,,0.00,weatherlink.com 1.10,2013-03-03 13:27:00,
2013-03-03 08:42:00,21.8,19.0,29.58,North,351,0.0,2.0,89,0.00,,,0.00,weatherlink.com 1.10,2013-03-03 13:42:00,
2013-03-03 08:57:00,22.4,19.0,29.58,WNW,293,0.0,3.0,88,0.00,,,0.00,weatherlink.com 1.10,2013-03-03 13:57:00,
2013-03-03 09:12:00,23.2,20.0,29.58,NW,318,1.0,3.0,86,0.00,,,0.00,weatherlink.com 1.10,2013-03-03 14:12:00,
2013-03-03 09:27:00,23.6,20.0,29.58,North,360,0.0,1.0,84,0.00,,,0.00,weatherlink.com 1.10,2013-03-03 14:27:00,
2013-03-03 09:42:00,23.9,19.0,29.58,South,171,0.0,2.0,82,0.00,,,0.00,weatherlink.com 1.10,2013-03-03 14:42:00,
2013-03-03 09:57:00,24.2,19.0,29.57,West,262,2.0,3.0,82,0.00,,,0.00,weatherlink.com 1.10,2013-03-03 14:57:00,
2013-03-03 10:12:00,24.2,19.0,29.57,West,262,1.0,2.0,82,0.00,,,0.00,weatherlink.com 1.10,2013-03-03 15:12:00,
2013-03-03 10:27:00,24.7,20.0,29.57,South,191,0.0,1.0,82,0.00,,,0.00,weatherlink.com 1.10,2013-03-03 15:27:00,
2013-03-03 10:43:00,24.8,20.0,29.57,West,265,1.0,4.0,81,0.00,,,0.00,weatherlink.com 1.10,2013-03-03 15:43:00,
2013-03-03 10:58:00,24.7,20.0,29.57,West,260,0.0,2.0,82,0.00,,,0.00,weatherlink.com 1.10,2013-03-03 15:58:00,
2013-03-03 11:13:00,24.8,20.0,29.57,ENE,64,0.0,3.0,81,0.00,,,0.00,weatherlink.com 1.10,2013-03-03 16:13:00,
2013-03-03 11:28:00,25.0,20.0,29.57,West,267,2.0,4.0,81,0.00,,,0.00,weatherlink.com 1.10,2013-03-03 16:28:00,
2013-03-03 11:43:00,24.2,20.0,29.57,WNW,288,1.0,4.0,83,0.00,,,0.00,weatherlink.com 1.10,2013-03-03 16:43:00,
2013-03-03 11:58:00,24.7,20.0,29.57,NNW,337,0.0,3.0,82,0.00,,,0.00,weatherlink.com 1.10,2013-03-03 16:58:00,
2013-03-03 12:13:00,25.1,20.0,29.57,NNW,336,1.0,3.0,82,0.00,,,0.00,weatherlink.com 1.10,2013-03-03 17:13:00,
2013-03-03 12:28:00,25.3,21.0,29.56,SSE,148,0.0,3.0,82,0.00,,,0.00,weatherlink.com 1.10,2013-03-03 17:28:00,
2013-03-03 12:43:00,25.0,20.0,29.56,WNW,299,1.0,4.0,82,0.00,,,0.00,weatherlink.com 1.10,2013-03-03 17:43:00,
2013-03-03 12:58:00,24.8,20.0,29.56,NNE,31,0.0,3.0,82,0.00,,,0.00,weatherlink.com 1.10,2013-03-03 17:58:00,
2013-03-03 13:13:00,25.3,21.0,29.56,West,263,0.0,4.0,82,0.00,,,0.00,weatherlink.com 1.10,2013-03-03 18:13:00,
2013-03-03 13:28:00,25.6,21.0,29.55,NE,34,0.0,2.0,82,0.00,,,0.00,weatherlink.com 1.10,2013-03-03 18:28:00,
2013-03-03 13:43:00,25.4,21.0,29.55,NE,42,0.0,2.0,82,0.00,,,0.00,weatherlink.com 1.10,2013-03-03 18:43:00,
2013-03-03 13:58:00,25.6,21.0,29.55,NE,46,0.0,2.0,81,0.01,,,0.01,weatherlink.com 1.10,2013-03-03 18:58:00,
2013-03-03 14:13:00,26.7,21.0,29.55,NE,46,0.0,2.0,78,0.01,,,0.01,weatherlink.com 1.10,2013-03-03 19:13:00,
2013-03-03 14:28:00,27.0,20.0,29.55,NE,51,0.0,3.0,76,0.01,,,0.01,weatherlink.com 1.10,2013-03-03 19:28:00,
2013-03-03 14:43:00,27.3,21.0,29.55,ENE,67,0.0,2.0,76,0.00,,,0.01,weatherlink.com 1.10,2013-03-03 19:43:00,
2013-03-03 14:58:00,27.8,21.0,29.55,ENE,66,0.0,2.0,77,0.00,,,0.01,weatherlink.com 1.10,2013-03-03 19:58:00,
2013-03-03 15:13:00,27.6,21.0,29.55,WNW,285,0.0,3.0,76,0.00,,,0.01,weatherlink.com 1.10,2013-03-03 20:13:00,
2013-03-03 15:28:00,27.2,21.0,29.54,West,277,1.0,4.0,77,0.00,,,0.01,weatherlink.com 1.10,2013-03-03 20:28:00,
2013-03-03 15:43:00,27.6,22.0,29.54,WNW,289,0.0,3.0,78,0.00,,,0.01,weatherlink.com 1.10,2013-03-03 20:43:00,
2013-03-03 15:58:00,27.2,21.0,29.54,North,360,2.0,3.0,78,0.00,,,0.01,weatherlink.com 1.10,2013-03-03 20:58:00,
2013-03-03 16:13:00,26.6,21.0,29.55,NNW,333,2.0,3.0,79,0.00,,,0.01,weatherlink.com 1.10,2013-03-03 21:13:00,
2013-03-03 16:28:00,26.3,21.0,29.55,WSW,258,0.0,3.0,80,0.00,,,0.01,weatherlink.com 1.10,2013-03-03 21:28:00,
2013-03-03 16:43:00,26.0,21.0,29.56,WSW,238,0.0,3.0,80,0.00,,,0.01,weatherlink.com 1.10,2013-03-03 21:43:00,
2013-03-03 16:58:00,25.7,20.0,29.56,WSW,244,1.0,3.0,80,0.00,,,0.01,weatherlink.com 1.10,2013-03-03 21:58:00,
2013-03-03 17:13:00,25.4,20.0,29.56,WSW,254,3.0,3.0,80,0.00,,,0.01,weatherlink.com 1.10,2013-03-03 22:13:00,
2013-03-03 17:28:00,24.8,19.0,29.56,West,265,3.0,7.0,80,0.00,,,0.01,weatherlink.com 1.10,2013-03-03 22:28:00,
2013-03-03 17:43:00,24.5,19.0,29.56,NW,324,2.0,7.0,80,0.00,,,0.01,weatherlink.com 1.10,2013-03-03 22:43:00,
2013-03-03 17:58:00,24.1,19.0,29.57,NW,326,1.0,5.0,81,0.00,,,0.01,weatherlink.com 1.10,2013-03-03 22:58:00,
2013-03-03 18:13:00,23.9,19.0,29.57,NW,317,3.0,4.0,80,0.00,,,0.01,weatherlink.com 1.10,2013-03-03 23:13:00,
2013-03-03 18:28:00,23.6,19.0,29.58,East,87,1.0,5.0,82,0.00,,,0.01,weatherlink.com 1.10,2013-03-03 23:28:00,
2013-03-03 18:43:00,23.2,19.0,29.58,WSW,257,1.0,5.0,85,0.00,,,0.01,weatherlink.com 1.10,2013-03-03 23:43:00,
2013-03-03 18:58:00,22.9,19.0,29.58,West,265,0.0,4.0,86,0.00,,,0.01,weatherlink.com 1.10,2013-03-03 23:58:00,
2013-03-03 19:13:00,22.7,19.0,29.58,WSW,254,0.0,4.0,87,0.00,,,0.01,weatherlink.com 1.10,2013-03-04 00:13:00,
2013-03-03 19:28:00,22.5,19.0,29.58,North,351,0.0,3.0,87,0.00,,,0.01,weatherlink.com 1.10,2013-03-04 00:28:00,
2013-03-03 19:43:00,22.4,19.0,29.58,North,351,0.0,1.0,88,0.00,,,0.01,weatherlink.com 1.10,2013-03-04 00:43:00,
2013-03-03 19:58:00,22.4,19.0,29.58,North,351,0.0,2.0,88,0.00,,,0.01,weatherlink.com 1.10,2013-03-04 00:58:00,
2013-03-03 20:13:00,22.2,19.0,29.59,North,351,0.0,0.0,88,0.00,,,0.01,weatherlink.com 1.10,2013-03-04 01:13:00,
2013-03-03 20:28:00,22.4,20.0,29.59,North,351,0.0,0.0,89,0.00,,,0.01,weatherlink.com 1.10,2013-03-04 01:28:00,
2013-03-03 20:43:00,22.4,20.0,29.59,North,351,0.0,2.0,89,0.00,,,0.01,weatherlink.com 1.10,2013-03-04 01:43:00,
2013-03-03 20:58:00,22.4,20.0,29.59,North,351,0.0,0.0,90,0.00,,,0.01,weatherlink.com 1.10,2013-03-04 01:58:00,
2013-03-03 21:13:00,22.4,20.0,29.59,NW,309,0.0,3.0,90,0.00,,,0.01,weatherlink.com 1.10,2013-03-04 02:13:00,
2013-03-03 21:28:00,22.2,20.0,29.58,WSW,248,2.0,3.0,90,0.00,,,0.01,weatherlink.com 1.10,2013-03-04 02:28:00,
2013-03-03 21:43:00,22.1,20.0,29.58,West,277,1.0,4.0,91,0.00,,,0.01,weatherlink.com 1.10,2013-03-04 02:43:00,
2013-03-03 21:58:00,21.8,19.0,29.57,West,275,5.0,5.0,90,0.00,,,0.01,weatherlink.com 1.10,2013-03-04 02:58:00,
2013-03-03 22:13:00,21.6,19.0,29.57,WNW,284,2.0,7.0,90,0.00,,,0.01,weatherlink.com 1.10,2013-03-04 03:13:00,
2013-03-03 22:28:00,21.6,19.0,29.57,West,279,3.0,4.0,90,0.00,,,0.01,weatherlink.com 1.10,2013-03-04 03:28:00,
2013-03-03 22:43:00,21.1,19.0,29.57,WSW,245,3.0,6.0,90,0.00,,,0.01,weatherlink.com 1.10,2013-03-04 03:43:00,
2013-03-03 22:58:00,21.1,19.0,29.57,WNW,283,3.0,7.0,90,0.00,,,0.01,weatherlink.com 1.10,2013-03-04 03:58:00,
2013-03-03 23:13:00,21.1,18.0,29.57,WNW,287,2.0,6.0,89,0.00,,,0.01,weatherlink.com 1.10,2013-03-04 04:13:00,
2013-03-03 23:28:00,21.0,18.0,29.57,WSW,252,3.0,5.0,89,0.00,,,0.01,weatherlink.com 1.10,2013-03-04 04:28:00,
2013-03-03 23:43:00,21.0,18.0,29.57,West,269,0.0,7.0,88,0.00,,,0.01,weatherlink.com 1.10,2013-03-04 04:43:00,
2013-03-03 23:58:00,20.8,18.0,29.56,NW,311,1.0,3.0,88,0.00,,,0.01,weatherlink.com 1.10,2013-03-04 04:58:00,